| time (UTC) | temp F | wind direction | speed MPH | gust MPH | rain 1hr in | rain 24hr in | rain mn in | humidity % | barometer mb |
| 20260903061740 | 72 | 231 | 5.0 | 10.0 | 0.00 | 0.00 | 0.00 | 14 | 1016.0 |
| 20260903060824 | 73 | 240 | 6.0 | 9.0 | 0.00 | 0.00 | 0.00 | 13 | 1015.9 |
| 20260903055922 | 74 | 225 | 4.0 | 6.0 | 0.00 | 0.00 | 0.00 | 13 | 1015.8 |
| 20260903054922 | 74 | 248 | 6.0 | 10.0 | 0.00 | 0.00 | 0.00 | 13 | 1015.8 |
| 20260903053923 | 74 | 247 | 3.0 | 5.0 | 0.00 | 0.00 | 0.00 | 13 | 1015.6 |
| 20260903052924 | 75 | 229 | 5.0 | 8.0 | 0.00 | 0.00 | 0.00 | 13 | 1015.7 |
| 20260903051924 | 75 | 226 | 5.0 | 11.0 | 0.00 | 0.00 | 0.00 | 12 | 1015.7 |
| 20260903051023 | 75 | 230 | 9.0 | 13.0 | 0.00 | 0.00 | 0.00 | 13 | 1015.7 |
| 20260903050038 | 76 | 259 | 4.0 | 7.0 | 0.00 | 0.00 | 0.00 | 11 | 1015.9 |
| 20260903045126 | 77 | 230 | 5.0 | 8.0 | 0.00 | 0.00 | 0.00 | 11 | 1015.6 |
| 20260903044126 | 77 | 206 | 5.0 | 10.0 | 0.00 | 0.00 | 0.00 | 11 | 1015.7 |
| 20260903043223 | 77 | 227 | 8.0 | 14.0 | 0.00 | 0.00 | 0.00 | 11 | 1015.5 |
| 20260903042224 | 77 | 191 | 8.0 | 11.0 | 0.00 | 0.00 | 0.00 | 10 | 1015.5 |
| 20260903040223 | 78 | 191 | 7.0 | 10.0 | 0.00 | 0.00 | 0.00 | 10 | 1015.2 |
| 20260903035240 | 78 | 190 | 8.0 | 12.0 | 0.00 | 0.00 | 0.00 | 10 | 1015.2 |
| 20260903034324 | 77 | 220 | 9.0 | 13.0 | 0.00 | 0.00 | 0.00 | 11 | 1015.3 |
| 20260903033423 | 78 | 190 | 5.0 | 10.0 | 0.00 | 0.00 | 0.00 | 11 | 1015.2 |
| 20260903032522 | 78 | 187 | 6.0 | 9.0 | 0.00 | 0.00 | 0.00 | 11 | 1015.2 |
| 20260903031524 | 78 | 193 | 6.0 | 8.0 | 0.00 | 0.00 | 0.00 | 11 | 1015.0 |
| 20260903025523 | 79 | 191 | 9.0 | 11.0 | 0.00 | 0.00 | 0.00 | 11 | 1014.9 |
| 20260903024523 | 79 | 191 | 8.0 | 12.0 | 0.00 | 0.00 | 0.00 | 11 | 1014.9 |
| 20260903023524 | 79 | 191 | 10.0 | 13.0 | 0.00 | 0.00 | 0.00 | 11 | 1014.8 |
| 20260903023441 | 79 | 210 | 9.0 | 14.0 | 0.00 | 0.00 | 0.00 | 11 | 1014.7 |
| 20260903022525 | 78 | 184 | 14.0 | 18.0 | 0.00 | 0.00 | 0.00 | 12 | 1014.7 |
| 20260903021623 | 78 | 187 | 8.0 | 11.0 | 0.00 | 0.00 | 0.00 | 13 | 1014.7 |
| 20260903020623 | 78 | 195 | 4.0 | 6.0 | 0.00 | 0.00 | 0.00 | 11 | 1014.6 |
| 20260903013722 | 79 | 188 | 6.0 | 9.0 | 0.00 | 0.00 | 0.00 | 13 | 1014.8 |
| 20260903012725 | 80 | 194 | 4.0 | 6.0 | 0.00 | 0.00 | 0.00 | 13 | 1015.0 |
| 20260903011723 | 80 | 202 | 5.0 | 7.0 | 0.00 | 0.00 | 0.00 | 12 | 1015.1 |
| 20260903010722 | 80 | 191 | 8.0 | 14.0 | 0.00 | 0.00 | 0.00 | 13 | 1015.1 |
| 20260903005723 | 80 | 234 | 11.0 | 18.0 | 0.00 | 0.00 | 0.00 | 13 | 1015.3 |
| 20260903004741 | 80 | 215 | 4.0 | 9.0 | 0.00 | 0.00 | 0.00 | 14 | 1015.2 |
| 20260903003824 | 81 | 231 | 6.0 | 9.0 | 0.00 | 0.00 | 0.00 | 14 | 1015.3 |
| 20260903002825 | 81 | 211 | 6.0 | 8.0 | 0.00 | 0.00 | 0.00 | 13 | 1015.3 |
| 20260903001824 | 81 | 214 | 7.0 | 11.0 | 0.00 | 0.00 | 0.00 | 15 | 1015.4 |
| 20260903000823 | 81 | 236 | 7.0 | 11.0 | 0.00 | 0.00 | 0.00 | 14 | 1015.3 |
| 20260902235922 | 81 | 211 | 6.0 | 9.0 | 0.00 | 0.00 | 0.00 | 15 | 1015.4 |
| 20260902233925 | 82 | 197 | 7.0 | 10.0 | 0.00 | 0.00 | 0.00 | 15 | 1015.5 |
| 20260902232922 | 81 | 211 | 6.0 | 8.0 | 0.00 | 0.00 | 0.00 | 16 | 1015.4 |
| 20260902231922 | 81 | 232 | 7.0 | 10.0 | 0.00 | 0.00 | 0.00 | 16 | 1015.6 |
| 20260902230922 | 81 | 224 | 8.0 | 14.0 | 0.00 | 0.00 | 0.00 | 16 | 1015.7 |
| 20260902225924 | 81 | 204 | 8.0 | 16.0 | 0.00 | 0.00 | 0.00 | 17 | 1015.7 |
| 20260902225824 | 81 | 200 | 8.0 | 15.0 | 0.00 | 0.00 | 0.00 | 16 | 1015.8 |
| 20260902224842 | 82 | 209 | 5.0 | 12.0 | 0.00 | 0.00 | 0.00 | 16 | 1015.9 |
| 20260902224722 | 82 | 224 | 6.0 | 13.0 | 0.00 | 0.00 | 0.00 | 16 | 1015.9 |
| 20260902223723 | 82 | 221 | 8.0 | 11.0 | 0.00 | 0.00 | 0.00 | 17 | 1015.7 |
| 20260902222823 | 82 | 211 | 6.0 | 12.0 | 0.00 | 0.00 | 0.00 | 16 | 1015.9 |
| 20260902221825 | 83 | 212 | 10.0 | 16.0 | 0.00 | 0.00 | 0.00 | 16 | 1015.6 |
| 20260902215825 | 82 | 235 | 5.0 | 8.0 | 0.00 | 0.00 | 0.00 | 18 | 1016.0 |
| 20260902213923 | 82 | 211 | 5.0 | 9.0 | 0.00 | 0.00 | 0.00 | 20 | 1016.1 |
| 20260902212941 | 82 | 237 | 6.0 | 10.0 | 0.00 | 0.00 | 0.00 | 20 | 1016.3 |
| 20260902212023 | 82 | 210 | 8.0 | 14.0 | 0.00 | 0.00 | 0.00 | 19 | 1016.3 |
| 20260902211024 | 83 | 244 | 7.0 | 11.0 | 0.00 | 0.00 | 0.00 | 19 | 1016.3 |
| 20260902210041 | 82 | 195 | 8.0 | 11.0 | 0.00 | 0.00 | 0.00 | 19 | 1016.2 |
| 20260902205024 | 83 | 205 | 8.0 | 15.0 | 0.00 | 0.00 | 0.00 | 19 | 1016.4 |
| 20260902204122 | 82 | 224 | 8.0 | 15.0 | 0.00 | 0.00 | 0.00 | 20 | 1016.4 |
| 20260902203124 | 82 | 215 | 4.0 | 9.0 | 0.00 | 0.00 | 0.00 | 21 | 1016.4 |
| 20260902202123 | 81 | 241 | 12.0 | 19.0 | 0.00 | 0.00 | 0.00 | 20 | 1016.6 |
| 20260902201123 | 81 | 217 | 8.0 | 11.0 | 0.00 | 0.00 | 0.00 | 20 | 1016.9 |
| 20260902201024 | 81 | 229 | 10.0 | 17.0 | 0.00 | 0.00 | 0.00 | 21 | 1016.9 |
| 20260902200024 | 81 | 195 | 8.0 | 11.0 | 0.00 | 0.00 | 0.00 | 22 | 1017.0 |
| 20260902195923 | 81 | 198 | 6.0 | 8.0 | 0.00 | 0.00 | 0.00 | 21 | 1017.0 |
| 20260902194924 | 81 | 226 | 9.0 | 14.0 | 0.00 | 0.00 | 0.00 | 22 | 1017.1 |
| 20260902193940 | 81 | 194 | 9.0 | 15.0 | 0.00 | 0.00 | 0.00 | 21 | 1017.4 |
| 20260902192926 | 80 | 197 | 8.0 | 15.0 | 0.00 | 0.00 | 0.00 | 21 | 1017.5 |
| 20260902191939 | 80 | 193 | 8.0 | 11.0 | 0.00 | 0.00 | 0.00 | 21 | 1017.7 |
| 20260902190824 | 80 | 222 | 11.0 | 17.0 | 0.00 | 0.00 | 0.00 | 22 | 1018.0 |
| 20260902190723 | 80 | 193 | 10.0 | 15.0 | 0.00 | 0.00 | 0.00 | 22 | 1018.0 |
| 20260902185724 | 80 | 234 | 8.0 | 16.0 | 0.00 | 0.00 | 0.00 | 23 | 1018.0 |
| 20260902184723 | 80 | 211 | 8.0 | 13.0 | 0.00 | 0.00 | 0.00 | 24 | 1018.1 |
| 20260902183739 | 79 | 199 | 7.0 | 11.0 | 0.00 | 0.00 | 0.00 | 27 | 1018.0 |
| 20260902182824 | 79 | 225 | 9.0 | 17.0 | 0.00 | 0.00 | 0.00 | 27 | 1018.3 |
| 20260902180825 | 79 | 222 | 10.0 | 18.0 | 0.00 | 0.00 | 0.00 | 28 | 1018.4 |
| 20260902175842 | 79 | 202 | 8.0 | 16.0 | 0.00 | 0.00 | 0.00 | 30 | 1018.3 |
| 20260902174824 | 78 | 211 | 6.0 | 11.0 | 0.00 | 0.00 | 0.00 | 29 | 1018.3 |
| 20260902172825 | 77 | 193 | 8.0 | 12.0 | 0.00 | 0.00 | 0.00 | 31 | 1018.5 |
| 20260902171922 | 78 | 211 | 10.0 | 18.0 | 0.00 | 0.00 | 0.00 | 31 | 1018.3 |
| 20260902170923 | 78 | 193 | 12.0 | 18.0 | 0.00 | 0.00 | 0.00 | 31 | 1018.6 |
| 20260902165940 | 77 | 195 | 15.0 | 22.0 | 0.00 | 0.00 | 0.00 | 32 | 1018.4 |
| 20260902164924 | 76 | 241 | 13.0 | 20.0 | 0.00 | 0.00 | 0.00 | 33 | 1018.6 |
| 20260902163924 | 75 | 187 | 8.0 | 13.0 | 0.00 | 0.00 | 0.00 | 33 | 1018.7 |
| 20260902162924 | 76 | 224 | 11.0 | 15.0 | 0.00 | 0.00 | 0.00 | 33 | 1018.6 |
| 20260902162024 | 76 | 190 | 13.0 | 16.0 | 0.00 | 0.00 | 0.00 | 35 | 1018.8 |
| 20260902160140 | 73 | 216 | 5.0 | 11.0 | 0.00 | 0.00 | 0.00 | 40 | 1018.7 |
| 20260902154225 | 70 | 119 | 5.0 | 6.0 | 0.00 | 0.00 | 0.00 | 48 | 1018.6 |
| 20260902152322 | 69 | 178 | 5.0 | 8.0 | 0.00 | 0.00 | 0.00 | 52 | 1018.7 |
| 20260902145323 | 67 | 180 | 5.0 | 8.0 | 0.00 | 0.00 | 0.00 | 56 | 1018.9 |
| 20260902144324 | 67 | 178 | 3.0 | 6.0 | 0.00 | 0.00 | 0.00 | 55 | 1018.6 |
| 20260902142422 | 71 | 114 | 2.0 | 4.0 | 0.00 | 0.00 | 0.00 | 42 | 1018.5 |
| 20260902141425 | 69 | 166 | 10.0 | 17.0 | 0.00 | 0.00 | 0.00 | 48 | 1018.4 |
| 20260902135525 | 71 | 120 | 6.0 | 10.0 | 0.00 | 0.00 | 0.00 | 40 | 1018.2 |
| 20260902135424 | 71 | 115 | 4.0 | 7.0 | 0.00 | 0.00 | 0.00 | 39 | 1018.2 |
| 20260902134424 | 71 | 175 | 3.0 | 7.0 | 0.00 | 0.00 | 0.00 | 39 | 1018.3 |
| 20260902133522 | 71 | 173 | 5.0 | 7.0 | 0.00 | 0.00 | 0.00 | 38 | 1018.2 |
| 20260902131622 | 71 | 197 | 4.0 | 6.0 | 0.00 | 0.00 | 0.00 | 39 | 1018.2 |
| 20260902130624 | 70 | 189 | 12.0 | 16.0 | 0.00 | 0.00 | 0.00 | 41 | 1017.9 |
| 20260902125723 | 67 | 185 | 8.0 | 13.0 | 0.00 | 0.00 | 0.00 | 56 | 1018.0 |
| 20260902125641 | 67 | 189 | 10.0 | 14.0 | 0.00 | 0.00 | 0.00 | 57 | 1018.0 |
| 20260902124624 | 66 | 141 | 4.0 | 8.0 | 0.00 | 0.00 | 0.00 | 63 | 1018.0 |
| 20260902123622 | 66 | 168 | 4.0 | 7.0 | 0.00 | 0.00 | 0.00 | 64 | 1017.9 |
| 20260902122625 | 66 | 175 | 5.0 | 8.0 | 0.00 | 0.00 | 0.00 | 62 | 1017.9 |
| 20260902120623 | 67 | 172 | 6.0 | 10.0 | 0.00 | 0.00 | 0.00 | 62 | 1017.9 |
| 20260902115624 | 67 | 157 | 7.0 | 10.0 | 0.00 | 0.00 | 0.00 | 59 | 1017.9 |
| 20260902113625 | 67 | 158 | 5.0 | 11.0 | 0.00 | 0.00 | 0.00 | 59 | 1017.8 |
| 20260902112640 | 67 | 160 | 7.0 | 10.0 | 0.00 | 0.00 | 0.00 | 61 | 1017.7 |
| 20260902111622 | 66 | 162 | 7.0 | 11.0 | 0.00 | 0.00 | 0.00 | 62 | 1017.7 |
| 20260902111524 | 66 | 160 | 6.0 | 9.0 | 0.00 | 0.00 | 0.00 | 62 | 1017.6 |
| 20260902110524 | 66 | 156 | 5.0 | 7.0 | 0.00 | 0.00 | 0.00 | 65 | 1017.7 |
| 20260902110441 | 66 | 168 | 8.0 | 12.0 | 0.00 | 0.00 | 0.00 | 66 | 1017.7 |
| 20260902105423 | 65 | 155 | 4.0 | 6.0 | 0.00 | 0.00 | 0.00 | 67 | 1017.5 |
| 20260902104441 | 65 | 160 | 5.0 | 8.0 | 0.00 | 0.00 | 0.00 | 64 | 1017.6 |
| 20260902103423 | 65 | 144 | 4.0 | 8.0 | 0.00 | 0.00 | 0.00 | 66 | 1017.7 |
| 20260902102424 | 65 | 167 | 7.0 | 11.0 | 0.00 | 0.00 | 0.00 | 66 | 1017.8 |
| 20260902101424 | 65 | 176 | 7.0 | 13.0 | 0.00 | 0.00 | 0.00 | 65 | 1017.8 |
| 20260902100439 | 65 | 172 | 5.0 | 7.0 | 0.00 | 0.00 | 0.00 | 63 | 1017.7 |
| 20260902095522 | 65 | 172 | 4.0 | 8.0 | 0.00 | 0.00 | 0.00 | 66 | 1017.8 |
| 20260902094523 | 64 | 174 | 4.0 | 7.0 | 0.00 | 0.00 | 0.00 | 68 | 1017.8 |
| 20260902092522 | 64 | 180 | 3.0 | 5.0 | 0.00 | 0.00 | 0.00 | 70 | 1017.9 |
| 20260902091525 | 64 | 180 | 2.0 | 4.0 | 0.00 | 0.00 | 0.00 | 69 | 1018.0 |
| 20260902090623 | 64 | 202 | 3.0 | 4.0 | 0.00 | 0.00 | 0.00 | 66 | 1018.0 |
| 20260902085623 | 65 | 247 | 2.0 | 3.0 | 0.00 | 0.00 | 0.00 | 63 | 1018.2 |
| 20260902082724 | 66 | 247 | 2.0 | 3.0 | 0.00 | 0.00 | 0.00 | 59 | 1018.3 |
| 20260902081724 | 65 | 247 | 1.0 | 3.0 | 0.00 | 0.00 | 0.00 | 61 | 1018.2 |
| 20260902080822 | 65 | 292 | 0.0 | 1.0 | 0.00 | 0.00 | 0.00 | 65 | 1018.3 |
| 20260902075823 | 66 | 292 | 2.0 | 3.0 | 0.00 | 0.00 | 0.00 | 65 | 1018.2 |
| 20260902072922 | 67 | 180 | 4.0 | 6.0 | 0.00 | 0.00 | 0.00 | 67 | 1018.2 |
| 20260902071942 | 67 | 166 | 6.0 | 10.0 | 0.00 | 0.00 | 0.00 | 68 | 1018.0 |
| 20260902070922 | 67 | 183 | 4.0 | 6.0 | 0.00 | 0.00 | 0.00 | 65 | 1018.2 |
| 20260902065023 | 68 | 178 | 5.0 | 8.0 | 0.00 | 0.00 | 0.00 | 57 | 1017.9 |
| 20260902063022 | 68 | 174 | 6.0 | 10.0 | 0.00 | 0.00 | 0.00 | 55 | 1017.9 |